AU224 Weather Reports


time (UTC)temp
C
wind
direction
speed
KPH
gust
KPH
rain 1hr
cm
rain 24hr
cm
rain mn
cm
humidity
%
barometer
mb
20260505124550 18 270 19.3 30.6 0.00 0.00 0.00 58 1003.8
20260505123106 17 271 11.3 24.1 0.00 0.00 0.00 55 1003.8
20260505121546 18 276 11.3 20.9 0.00 0.00 0.00 57 1004.2
20260505120052 19 287 9.7 20.9 0.00 0.00 0.00 54 1004.2
20260505114612 20 292 1.6 11.3 0.00 0.00 0.00 52 1004.2
20260505113048 20 0 6.4 16.1 0.00 0.00 0.00 50 1004.1
20260505111605 20 0 0.0 11.3 0.00 0.00 0.00 50 1004.1
20260505101547 19 0 0.0 0.0 0.00 0.00 0.00 53 1004.4
20260505100051 19 0 0.0 6.4 0.00 0.00 0.00 56 1004.5
20260505094548 19 0 1.6 9.7 0.00 0.00 0.00 56 1004.7
20260505093049 20 0 1.6 11.3 0.00 0.00 0.00 56 1004.8
20260505091545 18 0 0.0 4.8 0.00 0.00 0.00 59 1005.0
20260505090054 17 0 0.0 1.6 0.00 0.00 0.00 60 1005.1
20260505084545 17 0 0.0 0.0 0.00 0.00 0.00 61 1005.2
20260505083101 17 0 0.0 6.4 0.00 0.00 0.00 61 1005.4
20260505081555 16 0 0.0 3.2 0.00 0.00 0.00 67 1005.4
20260505080049 16 0 0.0 0.0 0.00 0.00 0.00 68 1005.5
20260505074553 15 0 0.0 0.0 0.00 0.00 0.00 68 1005.5
20260505073047 15 0 0.0 3.2 0.00 0.00 0.00 69 1005.7
20260505071543 13 0 0.0 8.0 0.00 0.00 0.00 71 1005.9
20260505070053 13 0 0.0 4.8 0.00 0.00 0.00 74 1006.2
20260505064555 12 0 0.0 0.0 0.00 0.00 0.00 76 1006.3
20260505063052 12 0 0.0 0.0 0.00 0.00 0.00 78 1006.3
20260505061545 12 0 0.0 4.8 0.00 0.00 0.00 78 1006.4
20260505060048 11 0 0.0 9.7 0.00 0.00 0.00 80 1006.5
20260505054557 10 0 0.0 8.0 0.00 0.00 0.00 82 1006.4
20260505053049 9 0 0.0 0.0 0.00 0.00 0.00 84 1006.2
20260505051543 8 0 0.0 0.0 0.00 0.00 0.00 84 1006.2
20260505041605 6 0 0.0 0.0 0.00 0.00 0.00 81 1006.6
20260505040042 6 0 0.0 0.0 0.00 0.00 0.00 80 1006.6
20260505034545 6 0 0.0 0.0 0.00 0.00 0.00 81 1006.6
20260505033049 6 0 0.0 0.0 0.00 0.00 0.00 80 1006.6
20260505031551 7 0 0.0 0.0 0.00 0.00 0.00 80 1006.7
20260505030048 7 0 0.0 0.0 0.00 0.00 0.00 79 1006.9
20260505024548 7 0 0.0 0.0 0.00 0.00 0.00 79 1007.0
20260505023051 7 0 0.0 0.0 0.00 0.00 0.00 79 1007.2
20260505021548 7 0 0.0 0.0 0.00 0.00 0.00 80 1007.5
20260505020041 7 0 0.0 0.0 0.00 0.00 0.00 79 1007.6
20260505014544 8 0 0.0 0.0 0.00 0.00 0.00 79 1007.6
20260505013046 8 0 0.0 0.0 0.00 0.00 0.00 78 1007.6
20260505011538 8 0 0.0 0.0 0.00 0.00 0.00 78 1007.7
20260505010048 8 0 0.0 0.0 0.00 0.00 0.00 78 1007.6
20260505004548 9 0 0.0 0.0 0.00 0.00 0.00 78 1007.8
20260505003049 9 0 0.0 0.0 0.00 0.00 0.00 78 1007.8
20260505001553 10 0 0.0 0.0 0.00 0.00 0.00 77 1007.9
20260505000054 10 0 0.0 0.0 0.00 0.00 0.00 76 1008.1
20260504234602 10 0 0.0 0.0 0.00 0.00 0.00 76 1008.2
20260504233051 10 0 0.0 0.0 0.00 0.00 0.00 77 1008.2
20260504231558 10 0 0.0 0.0 0.00 0.00 0.00 77 1008.5
20260504230041 11 0 0.0 0.0 0.00 0.00 0.00 77 1008.6
20260504224551 11 0 0.0 0.0 0.00 0.00 0.00 77 1008.8
20260504223050 11 0 0.0 0.0 0.00 0.00 0.00 77 1008.8
20260504221553 11 0 0.0 0.0 0.00 0.00 0.00 76 1008.8
20260504220052 12 0 0.0 0.0 0.00 0.00 0.00 75 1008.7
20260504214548 12 0 0.0 6.4 0.00 0.00 0.00 74 1009.0
20260504213050 12 291 0.0 0.0 0.00 0.00 0.00 73 1009.1
20260504211550 13 0 0.0 0.0 0.00 0.00 0.00 71 1009.0
20260504210104 13 0 0.0 0.0 0.00 0.00 0.00 71 1009.1
20260504204548 13 0 0.0 9.7 0.00 0.00 0.00 71 1009.2
20260504203049 14 0 0.0 0.0 0.00 0.00 0.00 70 1009.2
20260504201551 14 0 0.0 4.8 0.00 0.00 0.00 70 1009.3
20260504200048 15 0 0.0 0.0 0.00 0.00 0.00 68 1009.5
20260504194600 15 0 1.6 9.7 0.00 0.00 0.00 68 1009.4
20260504193045 15 0 0.0 14.5 0.00 0.00 0.00 67 1009.6
20260504191549 16 49 1.6 6.4 0.00 0.00 0.00 65 1009.4
20260504190113 17 0 0.0 16.1 0.00 0.00 0.00 62 1009.9
20260504184555 17 189 3.2 19.3 0.00 0.00 0.00 59 1009.6
20260504183042 19 170 3.2 12.9 0.00 0.00 0.00 52 1009.1
20260504181548 20 0 0.0 0.0 0.00 0.00 0.00 47 1008.5
20260504180126 20 0 0.0 0.0 0.00 0.00 0.00 44 1008.2
20260504174550 20 0 0.0 0.0 0.00 0.00 0.00 45 1008.1
20260504173058 20 0 0.0 0.0 0.00 0.00 0.00 44 1008.2
20260504171541 20 0 0.0 1.6 0.00 0.00 0.00 43 1008.1